Alcoa, TN

12:07 AM EST on December 04, 2016 (GMT -0500)
McGhee Tyson

Weather History for KTYS - May, 2013

Change the Weather History Date:

Sunday, May 26, 2013

  Actual Average Record
Temperature  
Mean Temperature 66 °F 70 °F  
Max Temperature 77 °F 81 °F 94 °F (1926)
Min Temperature 54 °F 59 °F 38 °F (1979)
Degree Days  
Heating Degree Days 0 1  
Month to date heating degree days 69 55  
Since 1 July heating degree days 3625 3630  
Cooling Degree Days 1 6  
Month to date cooling degree days 79 93  
Year to date cooling degree days 110 130  
Growing Degree Days 16 (Base 50)    
Moisture  
Dew Point 49 °F    
Average Humidity 58    
Maximum Humidity 83    
Minimum Humidity 33    
Precipitation  
Precipitation 0.06 in 0.14 in 1.76 in (2004)
Month to date precipitation 3.52 3.82  
Year to date precipitation 31.42 20.75  
Snow  
Snow 0.00 in 0.00 in - ()
Month to date snowfall 0.0 0.0  
Since 1 July snowfall 3.8 6.5  
Snow Depth 0.00 in    
Sea Level Pressure  
Sea Level Pressure 30.22 in    
Wind  
Wind Speed 3 mph (NE)    
Max Wind Speed 13 mph    
Max Gust Speed 16 mph    
Visibility 10 miles    
Events Rain    
T = Trace of Precipitation, MM = Missing Value Source: NWS Daily Summary

Daily Weather History Graph

Daily Weather History Graph

Search for Another Location

Airport or City:

Trip Planner

Search our weather history database for the weather conditions in past years. The results will help you decide how hot, cold, wet, or windy it might be!

Date:

Astronomy

May. 26, 2013 Rise Set
Actual Time 6:23 AM EDT 8:43 PM EDT
Civil Twilight 5:54 AM EDT 9:12 PM EDT
Nautical Twilight 5:18 AM EDT 9:48 PM EDT
Astronomical Twilight 4:39 AM EDT 10:27 PM EDT
Moon 10:30 PM EDT (5/26) 7:51 AM EDT (5/26)
Length of Visible Light 15h 18m
Length of Day
14h 19m
Waning Gibbous, 97% of the Moon is Illuminated
May 26
Waning Gibbous
May 31
Last Quarter
Jun 8
New
Jun 16
First Quarter
Jun 23
Full

Hourly Weather History & Observations

Time (EDT) Temp. Dew Point Humidity Pressure Visibility Wind Dir Wind Speed Gust Speed Precip Events Conditions
12:53 AM 57.0 °F 48.0 °F 72% 30.21 in 10.0 mi Calm Calm - N/A   Mostly Cloudy
1:53 AM 59.0 °F 46.9 °F 64% 30.20 in 10.0 mi North 3.5 mph - N/A   Mostly Cloudy
2:53 AM 55.9 °F 48.9 °F 77% 30.19 in 10.0 mi East 3.5 mph - N/A   Mostly Cloudy
3:53 AM 57.0 °F 46.9 °F 69% 30.20 in 10.0 mi NNE 5.8 mph - N/A   Mostly Cloudy
4:53 AM 55.9 °F 48.0 °F 75% 30.20 in 10.0 mi ENE 5.8 mph - N/A   Mostly Cloudy
5:53 AM 57.0 °F 46.0 °F 67% 30.22 in 10.0 mi Calm Calm - 0.00 in Rain Light Rain
6:53 AM 55.9 °F 48.0 °F 75% 30.26 in 10.0 mi NNE 8.1 mph - 0.04 in Rain Light Rain
7:53 AM 55.0 °F 50.0 °F 83% 30.26 in 10.0 mi Calm Calm - 0.02 in Rain Light Rain
8:53 AM 57.0 °F 52.0 °F 83% 30.26 in 10.0 mi Calm Calm - 0.00 in   Mostly Cloudy
9:53 AM 60.1 °F 53.1 °F 78% 30.28 in 10.0 mi North 3.5 mph - N/A   Overcast
10:53 AM 62.1 °F 53.1 °F 72% 30.28 in 10.0 mi Calm Calm - N/A   Mostly Cloudy
11:53 AM 64.9 °F 50.0 °F 58% 30.28 in 10.0 mi East 3.5 mph - N/A   Mostly Cloudy
12:53 PM 70.0 °F 48.9 °F 47% 30.27 in 10.0 mi Calm Calm - N/A   Scattered Clouds
1:53 PM 73.0 °F 48.9 °F 42% 30.25 in 10.0 mi NE 4.6 mph - N/A   Scattered Clouds
2:53 PM 73.9 °F 48.9 °F 41% 30.22 in 10.0 mi Variable 3.5 mph - N/A   Scattered Clouds
3:53 PM 75.0 °F 45.0 °F 34% 30.21 in 10.0 mi NNW 6.9 mph - N/A   Partly Cloudy
4:53 PM 75.9 °F 46.9 °F 36% 30.19 in 10.0 mi Calm Calm - N/A   Partly Cloudy
5:53 PM 75.9 °F 48.9 °F 38% 30.18 in 10.0 mi East 3.5 mph - N/A   Partly Cloudy
6:53 PM 75.9 °F 48.9 °F 38% 30.17 in 10.0 mi Variable 3.5 mph - N/A   Partly Cloudy
7:53 PM 73.9 °F 48.9 °F 41% 30.17 in 10.0 mi West 3.5 mph - N/A   Partly Cloudy
8:53 PM 71.1 °F 52.0 °F 51% 30.17 in 10.0 mi Calm Calm - N/A   Scattered Clouds
9:53 PM 66.0 °F 53.1 °F 63% 30.17 in 10.0 mi ENE 3.5 mph - N/A   Mostly Cloudy
10:53 PM 64.9 °F 52.0 °F 63% 30.18 in 10.0 mi Calm Calm - N/A   Partly Cloudy
11:53 PM 64.0 °F 53.1 °F 67% 30.19 in 10.0 mi Calm Calm - N/A   Scattered Clouds